When you browse on this site, cookies collect data to enhance your experience and personalize the content and advertising you see.
Visit our Privacy Policy to learn more. By continuing to use the site, you agree to this use of cookies and data.
  • In Spain
  • List of Countries
  • For 7 days
  • Water Temperature
  • Weather Map
  • Weather Widgets
  • user-avatar
    Login

    Hourly Weather Shymkent

    Today, 22 February, Saturday

    Time Temperature Precipitation Wind Pressure Humidity
    00:00 +9°C° 0 mm 5 mps 715 mmHg 48%
    01:00 +8°C° 0 mm 5 mps 716 mmHg 54%
    02:00 +7°C° 0 mm 5 mps 716 mmHg 60%
    03:00 +6°C° 0.1 mm 5 mps 716 mmHg 68%
    04:00 +6°C° 0.1 mm 5 mps 717 mmHg 77%
    05:00 +5°C° 0.1 mm 5 mps 718 mmHg 86%
    06:00 +4°C° 1.9 mm 6 mps 718 mmHg 87%
    07:00 +3°C° 1.9 mm 6 mps 718 mmHg 89%
    08:00 +3°C° 1.9 mm 7 mps 719 mmHg 91%
    09:00 +3°C° 1.3 mm 7 mps 719 mmHg 90%
    10:00 +3°C° 1.3 mm 6 mps 719 mmHg 90%
    11:00 +3°C° 1.3 mm 6 mps 720 mmHg 89%
    12:00 +4°C° 0.1 mm 6 mps 720 mmHg 87%
    13:00 +4°C° 0.1 mm 6 mps 720 mmHg 85%
    14:00 +4°C° 0.1 mm 6 mps 720 mmHg 83%
    15:00 +5°C° 0 mm 5 mps 721 mmHg 82%
    16:00 +4°C° 0 mm 4 mps 721 mmHg 81%
    17:00 +4°C° 0 mm 4 mps 721 mmHg 80%
    18:00 +4°C° 0 mm 3 mps 722 mmHg 82%
    19:00 +4°C° 0 mm 2 mps 722 mmHg 83%
    20:00 +5°C° 0 mm 1 mps 722 mmHg 84%
    21:00 +5°C° 0 mm 1 mps 722 mmHg 84%
    22:00 +4°C° 0 mm 0 mps 722 mmHg 84%
    23:00 +4°C° 0 mm 0 mps 722 mmHg 83%

    Tomorrow, 23 February, Sunday

    Time Temperature Precipitation Wind Pressure Humidity
    00:00 +3°C° 0 mm 0 mps 722 mmHg 84%
    01:00 +4°C° 0 mm 1 mps 722 mmHg 84%
    02:00 +4°C° 0 mm 1 mps 721 mmHg 84%
    03:00 +4°C° 0 mm 1 mps 721 mmHg 85%
    04:00 +2°C° 0 mm 2 mps 721 mmHg 85%
    05:00 +2°C° 0 mm 2 mps 721 mmHg 86%
    06:00 +2°C° 0 mm 2 mps 721 mmHg 84%
    07:00 +3°C° 0 mm 2 mps 721 mmHg 83%
    08:00 +4°C° 0 mm 1 mps 720 mmHg 82%
    09:00 +6°C° 0 mm 1 mps 720 mmHg 77%
    10:00 +7°C° 0 mm 2 mps 720 mmHg 73%
    11:00 +8°C° 0 mm 2 mps 720 mmHg 68%
    12:00 +9°C° 0 mm 2 mps 720 mmHg 66%
    13:00 +10°C° 0 mm 2 mps 719 mmHg 64%
    14:00 +12°C° 0 mm 2 mps 719 mmHg 62%
    15:00 +12°C° 0 mm 2 mps 718 mmHg 65%
    16:00 +10°C° 0 mm 2 mps 718 mmHg 67%
    17:00 +10°C° 0 mm 2 mps 717 mmHg 70%
    18:00 +9°C° 0 mm 2 mps 717 mmHg 71%
    19:00 +8°C° 0 mm 2 mps 717 mmHg 71%
    20:00 +7°C° 0 mm 2 mps 717 mmHg 72%
    21:00 +7°C° 0.1 mm 2 mps 717 mmHg 74%
    22:00 +7°C° 0.1 mm 2 mps 717 mmHg 76%
    23:00 +5°C° 0.1 mm 3 mps 717 mmHg 79%

    Day after tomorrow, 24 February, Monday

    Time Temperature Precipitation Wind Pressure Humidity
    00:00 +5°C° 2.3 mm 3 mps 717 mmHg 83%
    01:00 +5°C° 2.3 mm 3 mps 717 mmHg 88%
    02:00 +5°C° 2.3 mm 3 mps 717 mmHg 92%
    03:00 +5°C° 1.4 mm 3 mps 717 mmHg 91%
    04:00 +7°C° 1.4 mm 3 mps 717 mmHg 90%
    05:00 +7°C° 1.4 mm 3 mps 716 mmHg 89%
    06:00 +7°C° 0.4 mm 2 mps 716 mmHg 91%
    07:00 +7°C° 0.4 mm 2 mps 717 mmHg 93%
    08:00 +6°C° 0.4 mm 2 mps 717 mmHg 94%
    09:00 +7°C° 0.2 mm 2 mps 717 mmHg 94%
    10:00 +7°C° 0.2 mm 3 mps 717 mmHg 94%
    11:00 +7°C° 0.2 mm 3 mps 717 mmHg 94%
    12:00 +7°C° 0.3 mm 3 mps 717 mmHg 94%
    13:00 +7°C° 0.3 mm 2 mps 717 mmHg 94%
    14:00 +7°C° 0.3 mm 2 mps 717 mmHg 94%
    15:00 +8°C° 0 mm 1 mps 717 mmHg 91%
    16:00 +9°C° 0 mm 1 mps 717 mmHg 87%
    17:00 +9°C° 0 mm 1 mps 717 mmHg 84%
    18:00 +9°C° 0 mm 1 mps 717 mmHg 85%
    19:00 +8°C° 0 mm 1 mps 717 mmHg 86%
    20:00 +6°C° 0 mm 2 mps 717 mmHg 87%
    21:00 +6°C° 0 mm 2 mps 717 mmHg 83%
    22:00 +6°C° 0 mm 2 mps 717 mmHg 80%
    23:00 +6°C° 0 mm 2 mps 717 mmHg 76%

    25 February, Tuesday

    Time Temperature Precipitation Wind Pressure Humidity
    00:00 +6°C° 0 mm 2 mps 717 mmHg 73%
    01:00 +6°C° 0 mm 2 mps 717 mmHg 69%
    02:00 +6°C° 0 mm 2 mps 717 mmHg 66%
    03:00 +6°C° 0 mm 2 mps 716 mmHg 64%
    04:00 +6°C° 0 mm 2 mps 716 mmHg 62%
    05:00 +6°C° 0 mm 2 mps 716 mmHg 60%
    06:00 +7°C° 0 mm 2 mps 716 mmHg 59%
    07:00 +7°C° 0 mm 2 mps 716 mmHg 58%
    08:00 +7°C° 0 mm 2 mps 717 mmHg 57%
    09:00 +9°C° 0 mm 2 mps 716 mmHg 53%
    10:00 +12°C° 0 mm 1 mps 716 mmHg 48%
    11:00 +14°C° 0 mm 1 mps 716 mmHg 44%
    12:00 +15°C° 0 mm 1 mps 716 mmHg 43%
    13:00 +16°C° 0 mm 1 mps 716 mmHg 41%
    14:00 +18°C° 0 mm 1 mps 716 mmHg 40%
    15:00 +16°C° 0 mm 1 mps 715 mmHg 43%
    16:00 +16°C° 0 mm 2 mps 715 mmHg 46%
    17:00 +15°C° 0 mm 2 mps 715 mmHg 49%
    18:00 +14°C° 0 mm 2 mps 715 mmHg 50%
    19:00 +11°C° 0 mm 3 mps 715 mmHg 52%
    20:00 +10°C° 0 mm 3 mps 715 mmHg 53%
    21:00 +10°C° 0 mm 3 mps 715 mmHg 52%
    22:00 +9°C° 0 mm 3 mps 715 mmHg 50%
    23:00 +9°C° 0 mm 3 mps 715 mmHg 48%

    26 February, Wednesday

    Time Temperature Precipitation Wind Pressure Humidity
    00:00 +9°C° 0 mm 3 mps 715 mmHg 47%
    01:00 +9°C° 0 mm 3 mps 715 mmHg 46%
    02:00 +9°C° 0 mm 3 mps 715 mmHg 45%
    03:00 +9°C° 0 mm 3 mps 714 mmHg 45%
    04:00 +8°C° 0 mm 4 mps 714 mmHg 45%
    05:00 +8°C° 0 mm 4 mps 714 mmHg 45%
    06:00 +8°C° 0 mm 4 mps 714 mmHg 45%
    07:00 +10°C° 0 mm 4 mps 713 mmHg 45%
    08:00 +10°C° 0 mm 4 mps 713 mmHg 45%
    09:00 +12°C° 0 mm 4 mps 713 mmHg 41%
    10:00 +15°C° 0 mm 4 mps 713 mmHg 38%
    11:00 +19°C° 0 mm 4 mps 712 mmHg 35%
    12:00 +20°C° 0 mm 4 mps 712 mmHg 33%
    13:00 +21°C° 0 mm 3 mps 712 mmHg 31%
    14:00 +22°C° 0 mm 3 mps 711 mmHg 30%
    15:00 +21°C° 0 mm 3 mps 711 mmHg 35%
    16:00 +20°C° 0 mm 3 mps 710 mmHg 40%
    17:00 +18°C° 0 mm 3 mps 710 mmHg 45%
    18:00 +17°C° 0 mm 3 mps 710 mmHg 49%
    19:00 +16°C° 0 mm 2 mps 710 mmHg 52%
    20:00 +15°C° 0 mm 1 mps 710 mmHg 55%
    21:00 +14°C° 0 mm 2 mps 710 mmHg 55%
    22:00 +14°C° 0 mm 2 mps 709 mmHg 55%
    23:00 +13°C° 0 mm 2 mps 709 mmHg 54%

    27 February, Thursday

    Time Temperature Precipitation Wind Pressure Humidity
    00:00 +12°C° 0.3 mm 3 mps 709 mmHg 58%
    01:00 +12°C° 0.3 mm 4 mps 709 mmHg 62%
    02:00 +12°C° 0.3 mm 5 mps 709 mmHg 66%
    03:00 +10°C° 1.1 mm 5 mps 710 mmHg 73%
    04:00 +10°C° 1.1 mm 5 mps 710 mmHg 79%
    05:00 +10°C° 1.1 mm 5 mps 710 mmHg 85%
    06:00 +11°C° 0.8 mm 4 mps 711 mmHg 85%
    07:00 +11°C° 0.8 mm 4 mps 711 mmHg 85%
    08:00 +11°C° 0.8 mm 4 mps 712 mmHg 85%
    09:00 +10°C° 1.8 mm 5 mps 712 mmHg 87%
    10:00 +9°C° 1.8 mm 6 mps 713 mmHg 89%
    11:00 +9°C° 1.8 mm 6 mps 714 mmHg 91%
    12:00 +9°C° 1.2 mm 6 mps 714 mmHg 89%
    13:00 +8°C° 1.2 mm 5 mps 715 mmHg 88%
    14:00 +8°C° 1.2 mm 5 mps 715 mmHg 86%
    15:00 +8°C° 0.4 mm 5 mps 715 mmHg 86%
    16:00 +7°C° 0.4 mm 4 mps 716 mmHg 86%
    17:00 +7°C° 0.4 mm 4 mps 716 mmHg 86%
    18:00 +6°C° 0.2 mm 4 mps 717 mmHg 87%
    19:00 +7°C° 0.2 mm 3 mps 717 mmHg 88%
    20:00 +5°C° 0.2 mm 3 mps 718 mmHg 89%
    21:00 +5°C° 0.2 mm 3 mps 718 mmHg 89%
    22:00 +5°C° 0.2 mm 3 mps 718 mmHg 90%
    23:00 +4°C° 0.2 mm 3 mps 718 mmHg 91%
    Show more